This is the latest recevied weather packets stored in our database for station/object NK7E-2. If no packets are shown the sender has not sent any weather packets the latest 10 day(s).
| Time | Temp. | Humidity | Pressure | Rain* | Wind** | Luminosity | Snow |
|---|---|---|---|---|---|---|---|
| 1777457117 | 16.67° C | 19% | 1023.8 hPa | 0 mm | - | - | - |
| 1777455317 | 17.78° C | 18% | 1023.8 hPa | 0 mm | - | - | - |
| 1777454717 | 17.78° C | 18% | 1024.1 hPa | 0 mm | - | - | - |
| 1777454117 | 17.22° C | 19% | 1023.9 hPa | 0 mm | - | - | - |
| 1777453517 | 17.78° C | 18% | 1024.2 hPa | 0 mm | - | - | - |
| 1777451717 | 18.33° C | 18% | 1023.7 hPa | 0 mm | - | - | - |
| 1777451117 | 18.89° C | 17% | 1023.9 hPa | 0 mm | - | - | - |
| 1777450517 | 18.89° C | 17% | 1024 hPa | 0 mm | - | - | - |
| 1777449917 | 19.44° C | 17% | 1023.7 hPa | 0 mm | - | - | - |
| 1777449317 | 19.44° C | 17% | 1024 hPa | 0 mm | - | - | - |
| 1777448117 | 19.44° C | 17% | 1024 hPa | 0 mm | - | - | - |
| 1777447517 | 19.44° C | 17% | 1023.8 hPa | 0 mm | - | - | - |
| 1777446917 | 19.44° C | 17% | 1024 hPa | 0 mm | - | - | - |
| 1777446317 | 19.44° C | 17% | 1024 hPa | 0 mm | - | - | - |
| 1777445716 | 19.44° C | 17% | 1023.7 hPa | 0 mm | - | - | - |
| 1777445116 | 20° C | 16% | 1023.9 hPa | 0 mm | - | - | - |
| 1777444516 | 19.44° C | 17% | 1023.7 hPa | 0 mm | - | - | - |
| 1777443916 | 18.89° C | 17% | 1023.7 hPa | 0 mm | - | - | - |
| 1777443315 | 19.44° C | 16% | 1023.7 hPa | 0 mm | - | - | - |
| 1777442715 | 20° C | 16% | 1023.7 hPa | 0 mm | - | - | - |
| 1777442116 | 19.44° C | 16% | 1023.7 hPa | 0 mm | - | - | - |
| 1777441515 | 20° C | 16% | 1023.9 hPa | 0 mm | - | - | - |
| 1777440915 | 20° C | 16% | 1023.9 hPa | 0 mm | - | - | - |
| 1777440318 | 20.56° C | 15% | 1023.9 hPa | 0 mm | - | - | - |
| 1777439717 | 20.56° C | 15% | 1023.8 hPa | 0 mm | - | - | - |
* Rain latest hour (hover to see other rain measurements)
** Current wind speed in m/s (hover to see current wind gust speed)